Mombasa, Kenya

11:26 PM EAT on October 21, 2017 (GMT +0300)
Mombasa

Weather History for HKMO - November, 2012

Change the Weather History Date:

Saturday, November 24, 2012

  Actual Average Record
Temperature  
Mean Temperature 81 °F -  
Max Temperature 87 °F 91 °F 91 °F (2013)
Min Temperature 75 °F 72 °F 73 °F (1999)
Cooling Degree Days 16    
Growing Degree Days 31 (Base 50)    
Moisture  
Dew Point 76 °F    
Average Humidity 82    
Maximum Humidity 94    
Minimum Humidity 65    
Precipitation  
Precipitation 0.63 in 0.11 in - ()
Sea Level Pressure  
Sea Level Pressure 29.85 in    
Wind  
Wind Speed 4 mph ()    
Max Wind Speed 13 mph    
Max Gust Speed -    
Visibility 7.1 miles    
Events Rain    
Averages and records for this station are not official NWS values.
T = Trace of Precipitation, MM = Missing Value Source: Averaged Metar Reports

Daily Weather History Graph

Daily Weather History Graph

Search for Another Location

Airport or City:

Trip Planner

Search our weather history database for the weather conditions in past years. The results will help you decide how hot, cold, wet, or windy it might be!

Date:

Astronomy

Nov. 24, 2012 Rise Set
Actual Time 5:58 AM EAT 6:18 PM EAT
Civil Twilight 5:36 AM EAT 6:40 PM EAT
Nautical Twilight 5:10 AM EAT 7:06 PM EAT
Astronomical Twilight 4:44 AM EAT 7:32 PM EAT
Moon 3:10 PM EAT (11/24) 2:42 AM EAT (11/24)
Length of Visible Light 13h 03m
Length of Day
12h 19m
Waxing Gibbous, 84% of the Moon is Illuminated
Nov 24
Waxing Gibbous
Nov 28
Full
Dec 6
Last Quarter
Dec 13
New
Dec 20
First Quarter

Hourly Weather History & Observations

Time (EAT) Temp. Heat Index Dew Point Humidity Pressure Visibility Wind Dir Wind Speed Gust Speed Precip Events Conditions
12:00 AM 80.6 °F 87.1 °F 77.0 °F 89% 29.86 in 6.2 mi ESE 5.8 mph - N/A   Partly Cloudy
1:00 AM 80.6 °F 87.1 °F 77.0 °F 89% 29.86 in 6.2 mi Calm Calm - N/A   Partly Cloudy
2:00 AM 80.6 °F 86.2 °F 75.2 °F 84% 29.83 in 6.2 mi SSE 4.6 mph - N/A   Partly Cloudy
4:00 AM 77.0 °F - 75.2 °F 94% 29.83 in 6.2 mi Calm Calm - N/A Rain Light Rain Showers
5:00 AM 77.0 °F - 75.2 °F 94% 29.86 in 6.2 mi Calm Calm - N/A   Scattered Clouds
8:00 AM 78.8 °F - 75.2 °F 89% 29.92 in 5.0 mi Calm Calm - N/A   Mostly Cloudy
9:00 AM 80 °F - 77 °F 88% 29.92 in 5 mi South 3.5 mph - - Rain Light Rain Showers
9:00 AM 78.8 °F - 77.0 °F 94% 29.92 in 5.0 mi South 3.5 mph - N/A Rain Rain Showers
10:00 AM 77.0 °F - 73.4 °F 89% 29.92 in 5.0 mi NE 6.9 mph - N/A Rain Rain Showers
12:00 PM 84.2 °F 92.3 °F 75.2 °F 74% 29.89 in 6.2 mi East 6.9 mph - N/A   Mostly Cloudy
1:00 PM 86.0 °F 95.1 °F 75.2 °F 70% 29.86 in 6.2 mi ESE 9.2 mph - N/A   Mostly Cloudy
2:00 PM 87.8 °F 99.7 °F 77.0 °F 70% 29.83 in 6.2 mi East 9.2 mph - N/A   Mostly Cloudy
3:00 PM 86 °F - 76 °F 65% 29.81 in 19 mi East 8.1 mph - -   Partly Cloudy
3:00 PM 86.0 °F 95.1 °F 75.2 °F 70% 29.80 in 6.2 mi East 8.1 mph - N/A   Mostly Cloudy
4:00 PM 86.0 °F 95.1 °F 75.2 °F 70% 29.80 in 6.2 mi East 12.7 mph - N/A   Scattered Clouds
5:00 PM - - - N/A% 29.80 in 6.2 mi ESE 6.9 mph - N/A   Scattered Clouds
6:00 PM 82.4 °F 89.5 °F 75.2 °F 79% 29.80 in 6.2 mi SE 6.9 mph - N/A   Mostly Cloudy
7:00 PM 82.4 °F 89.5 °F 75.2 °F 79% 29.83 in 6.2 mi ESE 5.8 mph - N/A   Scattered Clouds
8:00 PM 80.6 °F 86.2 °F 75.2 °F 84% 29.83 in 6.2 mi SE 4.6 mph - N/A   Scattered Clouds
9:00 PM 81 °F - 75 °F 78% 29.86 in 19 mi ESE 3.5 mph - -   Scattered Clouds
10:00 PM 80.6 °F 86.2 °F 75.2 °F 84% 29.86 in 6.2 mi ESE 3.5 mph - N/A   Partly Cloudy
11:00 PM 80.6 °F 86.2 °F 75.2 °F 84% 29.86 in 6.2 mi ESE 3.5 mph - N/A   Scattered Clouds